[[{"header":{"parameterUnit":"m.s-1","parameterCategory":1,"la1":30.2991,"la2":30.254,"lo1":-89.0895,"lo2":-89.0444,"dy":0.0017,"dx":0.0017,"nx":28,"ny":28,"refTime":"2024-04-28T21:00:00:Z","depth":0,"parameterNumber":2,"parameterNumberName":"U-component_of_WINDS"},"data":[0,0,0,0,0,0,0,0,0,0,0,0,0,0,0,0,0,0,0,0,0,0,0,0,0,0,0,0,0,0,0,0,0,0,0,0,0,0,0,0,0,0,0,0,0,0,0,0,0,0,0,0,0,0,0,0,0,0,-2.9548,-2.9548,0,-2.9582,-2.9582,-2.9582,-2.9574,-2.9573,-2.9572,-2.9572,-2.961,-2.9612,-2.9613,0,0,0,0,0,0,0,0,0,0,0,0,0,-2.948,-2.9481,-2.9547,-2.9548,-2.9548,-2.9582,-2.9582,-2.9583,-2.9574,-2.9573,-2.9572,-2.9571,-2.9609,-2.9611,-2.9613,0,0,0,0,0,0,0,0,0,0,0,0,0,-2.9511,-2.9482,-2.9547,-2.9548,-2.9548,-2.9582,-2.9582,-2.9583,-2.9574,-2.9573,-2.9572,-2.9571,-2.9609,-2.9611,-2.9614,-2.9649,0,0,-2.9621,-2.9622,0,0,0,0,0,0,0,0,-2.9509,-2.9514,-2.9547,-2.9548,-2.9548,-2.9572,-2.9572,-2.9605,-2.9574,-2.9564,-2.9572,-2.9571,-2.9599,-2.9602,-2.9611,-2.9651,-2.9653,-2.9621,-2.9623,-2.9624,-2.9625,0,0,0,0,0,0,0,-2.9507,-2.9512,-2.9561,-2.9548,-2.9549,-2.9548,-2.9551,-2.9578,-2.9587,-2.9565,-2.9565,-2.9569,-2.9599,-2.9608,-2.9611,-2.9653,-2.9621,-2.9624,-2.9625,-2.9626,-2.9728,-2.9729,0,0,0,0,0,0,-2.9504,-2.951,-2.956,-2.9562,-2.9526,-2.955,-2.9554,-2.9566,-2.9587,-2.9589,-2.9569,-2.9568,-2.9604,-2.9608,-2.9613,-2.9656,-2.9624,-2.9626,-2.9628,-2.9727,-2.9728,-2.9729,0,0,0,0,0,0,-2.9503,-2.9509,-2.9559,-2.9536,-2.9542,-2.9552,-2.9566,-2.9567,-2.9576,-2.959,-2.9592,-2.9577,-2.9604,-2.9609,-2.9641,-2.9658,-2.9627,-2.963,-2.9725,-2.9727,-2.9729,-2.9744,0,0,0,0,0,0,-2.9501,-2.9508,-2.952,-2.9536,-2.9544,-2.9584,-2.9567,-2.9568,-2.958,-2.9579,-2.9597,-2.96,-2.9603,-2.9637,-2.9643,-2.966,-2.9632,-2.9724,-2.9726,-2.9728,-2.9742,-2.9746,-2.9749,0,0,0,0,0,-2.9498,-2.9523,-2.9521,-2.9527,-2.9559,-2.9585,-2.9589,-2.9592,-2.9582,-2.9595,-2.9604,-2.9599,-2.9655,-2.964,-2.9647,-2.9665,-2.9723,-2.9725,-2.9728,-2.974,-2.9745,-2.9749,0,0,0,0,0,0,-2.9509,-2.9525,-2.9523,-2.9553,-2.9568,-2.9584,-2.96,-2.9597,-2.9616,-2.9614,-2.9618,-2.9622,-2.9654,-2.9664,-2.9646,-2.9703,-2.9688,-2.9692,-2.9695,-2.9699,-2.9703,-2.9699,-2.9634,0,0,0,0,0,-2.9515,-2.9534,-2.9548,-2.9574,-2.9581,-2.959,-2.9601,-2.9602,-2.9618,-2.9624,-2.9635,-2.9652,-2.9674,-2.9687,-2.9708,-2.9744,-2.9749,-2.9761,-2.9765,-2.9768,-2.9771,-2.9792,-2.9797,-2.9738,-2.9738,-2.9738,0,0,-2.9528,-2.9539,-2.955,-2.9576,-2.9587,-2.9608,-2.9595,-2.9617,-2.9632,-2.9628,-2.9657,-2.9667,-2.9686,-2.972,-2.9736,-2.9729,-2.9789,-2.9771,-2.9773,-2.9775,-2.9795,-2.9801,-2.9806,-2.974,-2.974,-2.974,0,0,-2.956,-2.9571,-2.9594,-2.9606,-2.9623,-2.9629,-2.9635,-2.9652,-2.9657,-2.9688,-2.9685,-2.9706,-2.9742,-2.9756,-2.9768,-2.981,-2.9807,-2.9817,-2.9836,-2.9857,-2.9861,-2.9866,-2.988,-2.9886,-2.9821,-2.9821,-2.9821,0,-2.9574,-2.9603,-2.9606,-2.9629,-2.9641,-2.9638,-2.9662,-2.9675,-2.9698,-2.9708,-2.97,-2.9747,-2.976,-2.9797,-2.9808,-2.9818,-2.9826,-2.9813,-2.986,-2.9865,-2.9868,-2.9883,-2.9888,-2.9822,-2.9822,-2.9821,-2.9821,0,-2.9619,-2.964,-2.9657,-2.9679,-2.9693,-2.9717,-2.9725,-2.974,-2.9741,-2.9749,-2.9781,-2.9797,-2.9821,-2.9831,-2.9832,-2.987,-2.9865,-2.9859,-2.9844,-2.9875,-2.9889,-2.9894,-2.9823,-2.9823,-2.9822,-2.9822,0,0,-2.9656,-2.9681,-2.9687,-2.9698,-2.9719,-2.9736,-2.9761,-2.9784,-2.9797,-2.9815,-2.9836,-2.9869,-2.9864,-2.9878,-2.9881,-2.99,-2.9933,-2.9892,-2.9892,-2.9898,-2.9976,-2.9979,-2.9986,-2.9932,-2.9933,-2.9934,-2.9974,0,-2.969,-2.9731,-2.9736,-2.9774,-2.9794,-2.9794,-2.9816,-2.9832,-2.9841,-2.9861,-2.9872,-2.9894,-2.9886,-2.9894,-2.9913,-2.9925,-2.9948,-2.9922,-2.9953,-2.9954,-2.9946,-2.9993,-2.9996,-3.0033,-2.998,-2.9981,-2.9981,0,-2.9734,-2.9752,-2.9791,-2.981,-2.9819,-2.9838,-2.9861,-2.988,-2.99,-2.9905,-2.9922,-2.9924,-2.9952,-2.9938,-2.9978,-2.996,-2.9974,-2.9982,-2.9984,-2.9985,-2.9968,-2.9994,-3.0045,-3.005,-2.999,-2.9989,-2.9988,0,-2.9756,-2.9791,-2.9819,-2.9829,-2.9852,-2.9866,-2.9877,-2.9895,-2.991,-2.9931,-2.994,-2.9965,-2.9978,-2.9998,-3.0008,-2.9997,-3.0047,-3.0034,-3.0053,-3.0053,-3.0062,-3.0061,-3.0114,-3.0073,-3.0073,-3.0073,-3.0073,0,-2.9792,-2.9816,-2.9829,-2.9846,-2.9874,-2.9882,-2.991,-2.9921,-2.9938,-2.9959,-2.9962,-2.9981,-2.9994,-3.0016,-3.0025,-3.0057,-3.0063,-3.0069,-3.0071,-3.0068,-3.0067,-3.0075,-3.0072,-3.0075,-3.0074,-3.0074,-3.0074,0,-2.982,-2.983,-2.9861,-2.9881,-2.9887,-2.9907,-2.9925,-2.9943,-2.9954,-2.998,-2.9987,-3.0003,-3.003,-3.0043,-3.0076,-3.0082,-3.0118,-3.0119,-3.0111,-3.0111,-3.013,-3.0127,-3.0188,-3.0197,-3.0152,-3.0152,-3.0153,0,-2.9841,-2.986,-2.9883,-2.9896,-2.9907,-2.9929,-2.9944,-2.9954,-2.9969,-2.9995,-3.001,-3.0037,-3.0058,-3.0102,-3.0118,-3.0145,-3.0145,-3.0165,-3.0149,-3.0146,-3.0145,-3.0143,-3.0145,-3.0167,-3.0167,-3.0168,-3.0168,0,-2.9878,-2.9883,-2.9903,-2.9926,-2.9943,-2.9962,-2.998,-2.9992,-3.0005,-3.0023,-3.005,-3.0067,-3.0102,-3.0129,-3.0157,-3.0171,-3.0172,-3.0174,-3.0179,-3.0175,-3.017,-3.0173,-3.0117,-3.0171,-3.0171,-3.0171,-3.0171,-3.0171,-2.9903,-2.992,-2.9939,-2.9962,-2.9977,-2.9995,-3.0013,-3.0026,-3.0048,-3.0075,-3.0081,-3.011,-3.0133,-3.017,-3.0185,-3.021,-3.0205,-3.0214,-3.0215,-3.0217,-3.0218,-3.0168,-3.0215,-3.0215,-3.0215,-3.0215,-3.0215,0,-2.9939,-2.9952,-2.9973,-2.9999,-3.0018,-3.0018,-3.0039,-3.0055,-3.008,-3.01,-3.0122,-3.0155,-3.0182,-3.0201,-3.0229,-3.0245,-3.0247,-3.0252,-3.025,-3.0254,-3.022,-3.0212,-3.025,-3.025,-3.025,-3.025,-3.025,-3.025,-2.996,-2.9989,-2.9996,-3.0033,-3.0046,-3.0073,-3.0086,-3.0103,-3.0119,-3.0155,-3.0177,-3.0189,-3.021,-3.024,-3.0266,-3.0271,-3.0281,-3.0287,-3.0292,-3.026,-3.0256,-3.0252,-3.0244,-3.0289,-3.0289,-3.0323,-3.0323,-3.0323]},{"header":{"parameterUnit":"m.s-1","parameterCategory":1,"la1":30.2991,"la2":30.254,"lo1":-89.0895,"lo2":-89.0444,"dy":0.0017,"dx":0.0017,"nx":28,"ny":28,"refTime":"2024-04-28T21:00:00:Z","depth":0,"parameterNumber":3,"parameterNumberName":"V-component_of_WINDS"},"data":[0,0,0,0,0,0,0,0,0,0,0,0,0,0,0,0,0,0,0,0,0,0,0,0,0,0,0,0,0,0,0,0,0,0,0,0,0,0,0,0,0,0,0,0,0,0,0,0,0,0,0,0,0,0,0,0,0,0,4.765,4.765,0,4.7686,4.7687,4.7687,4.7676,4.7675,4.7674,4.7673,4.7707,4.7708,4.771,0,0,0,0,0,0,0,0,0,0,0,0,0,4.7567,4.7569,4.765,4.765,4.7651,4.7686,4.7687,4.7687,4.7676,4.7675,4.7674,4.7673,4.7706,4.7708,4.771,0,0,0,0,0,0,0,0,0,0,0,0,0,4.7603,4.7569,4.765,4.765,4.765,4.7686,4.7687,4.7687,4.7676,4.7675,4.7674,4.7673,4.7706,4.7708,4.771,4.7748,0,0,4.7718,4.7719,0,0,0,0,0,0,0,0,4.7601,4.7606,4.7649,4.765,4.765,4.7675,4.767,4.7708,4.7676,4.7666,4.7673,4.7672,4.7697,4.77,4.7709,4.775,4.7751,4.7718,4.7719,4.772,4.7721,0,0,0,0,0,0,0,4.7599,4.7604,4.7664,4.765,4.765,4.7646,4.765,4.7677,4.7687,4.7667,4.7666,4.7671,4.7697,4.7707,4.771,4.7752,4.7718,4.772,4.7722,4.7722,4.7825,4.7826,0,0,0,0,0,0,4.7596,4.7603,4.7663,4.7665,4.7622,4.7649,4.7653,4.7668,4.7687,4.7689,4.7672,4.767,4.7704,4.7707,4.7711,4.7757,4.772,4.7723,4.7724,4.7824,4.7825,4.7827,0,0,0,0,0,0,4.7595,4.7602,4.7662,4.7634,4.7641,4.7652,4.7669,4.767,4.768,4.7691,4.7692,4.768,4.7703,4.7708,4.7739,4.7758,4.7724,4.7726,4.7822,4.7824,4.7826,4.7848,0,0,0,0,0,0,4.7592,4.7601,4.7616,4.7634,4.7643,4.769,4.767,4.7671,4.7684,4.7683,4.7699,4.7701,4.7702,4.7736,4.7742,4.776,4.7728,4.7821,4.7823,4.7825,4.7846,4.785,4.7855,0,0,0,0,0,4.7589,4.762,4.7617,4.7625,4.7662,4.7691,4.7696,4.7698,4.7686,4.7701,4.7708,4.77,4.7755,4.7739,4.7746,4.7765,4.7819,4.7822,4.7825,4.7844,4.785,4.7854,0,0,0,0,0,0,4.7603,4.7623,4.7619,4.7657,4.7673,4.7689,4.7708,4.7704,4.7723,4.772,4.7721,4.7725,4.7757,4.7764,4.7746,4.7803,4.7785,4.7789,4.7797,4.7803,4.7807,4.7804,4.773,0,0,0,0,0,4.761,4.7634,4.7649,4.7681,4.7689,4.7698,4.771,4.7711,4.7726,4.7733,4.7742,4.7756,4.7777,4.779,4.781,4.7847,4.785,4.7864,4.7868,4.7872,4.7875,4.7895,4.7902,4.7836,4.7836,4.7836,0,0,4.7626,4.764,4.7654,4.7684,4.7696,4.772,4.7703,4.7728,4.7745,4.7736,4.7767,4.7774,4.779,4.7825,4.7841,4.7832,4.7894,4.7875,4.7878,4.788,4.7899,4.7905,4.7911,4.7838,4.7838,4.7837,0,0,4.7666,4.7679,4.7707,4.772,4.7739,4.7745,4.7752,4.7769,4.7774,4.7805,4.7799,4.7819,4.7854,4.7866,4.7876,4.7922,4.7915,4.7928,4.7951,4.7971,4.7976,4.798,4.7996,4.8002,4.7932,4.7932,4.7932,0,4.7682,4.7718,4.7722,4.7748,4.7761,4.7756,4.7784,4.7796,4.782,4.7828,4.7819,4.7863,4.7874,4.7911,4.7923,4.7931,4.7938,4.7926,4.7975,4.798,4.7984,4.7999,4.8005,4.7933,4.7933,4.7933,4.7933,0,4.7738,4.7763,4.7783,4.7808,4.7824,4.785,4.7857,4.7872,4.7871,4.7878,4.7909,4.7922,4.7944,4.7953,4.7952,4.799,4.7984,4.7975,4.7957,4.7992,4.8006,4.8012,4.7935,4.7935,4.7934,4.7934,0,0,4.7786,4.7814,4.7821,4.7833,4.7854,4.7873,4.7899,4.7922,4.7935,4.7952,4.7973,4.8004,4.7996,4.8008,4.8008,4.8025,4.8061,4.8014,4.8014,4.8022,4.8104,4.811,4.8117,4.8057,4.8058,4.8059,4.8102,0,4.7828,4.7876,4.7881,4.7923,4.7946,4.7942,4.7964,4.7979,4.7986,4.8005,4.8012,4.8034,4.8021,4.8028,4.8046,4.8053,4.8077,4.805,4.8076,4.8077,4.8072,4.8125,4.8132,4.8172,4.8108,4.8109,4.8109,0,4.7883,4.7904,4.7949,4.7968,4.7977,4.7998,4.802,4.8039,4.8055,4.8059,4.8073,4.8071,4.8097,4.8079,4.8114,4.8096,4.8107,4.8112,4.8114,4.8116,4.8095,4.8128,4.8185,4.8191,4.8118,4.8118,4.8117,0,4.7915,4.7953,4.7985,4.7995,4.8018,4.8032,4.8042,4.8058,4.8071,4.809,4.8098,4.8119,4.813,4.8146,4.8149,4.8136,4.8185,4.8167,4.8188,4.8188,4.8198,4.8197,4.8257,4.8206,4.8206,4.8205,4.8205,0,4.7961,4.7989,4.8,4.8019,4.805,4.8055,4.8085,4.8093,4.8107,4.8128,4.8125,4.8144,4.8147,4.8167,4.817,4.8199,4.8204,4.8207,4.8207,4.8207,4.8207,4.8214,4.8211,4.8207,4.8207,4.8206,4.8206,0,4.8,4.8009,4.8044,4.8063,4.8068,4.809,4.8106,4.8124,4.8131,4.8157,4.8163,4.8173,4.8196,4.8201,4.8228,4.823,4.8264,4.8262,4.8259,4.8259,4.8279,4.8277,4.8346,4.8355,4.8298,4.8298,4.8299,0,4.8029,4.8051,4.8073,4.8087,4.8098,4.8121,4.8135,4.814,4.8155,4.8176,4.8192,4.8215,4.8233,4.827,4.8279,4.8299,4.8297,4.832,4.83,4.8299,4.8297,4.8296,4.8298,4.8323,4.8324,4.8325,4.8325,0,4.8079,4.8083,4.8105,4.8128,4.8146,4.8164,4.8181,4.8193,4.82,4.8216,4.8241,4.8255,4.8284,4.8306,4.8327,4.8336,4.8331,4.8331,4.8337,4.8337,4.8334,4.8336,4.8269,4.8329,4.8329,4.8329,4.8328,4.8328,4.8114,4.8134,4.8152,4.8176,4.819,4.8207,4.8225,4.8235,4.8256,4.828,4.8281,4.8308,4.8323,4.8351,4.8361,4.8381,4.8374,4.8383,4.8385,4.8387,4.8388,4.8332,4.8385,4.8385,4.8385,4.8385,4.8384,0,4.8164,4.8176,4.8199,4.8224,4.8243,4.8239,4.8258,4.8273,4.8297,4.8313,4.8332,4.836,4.8382,4.8393,4.8414,4.8428,4.8427,4.8434,4.8432,4.8434,4.8394,4.8386,4.8435,4.8435,4.8435,4.8435,4.8435,4.8434,4.8193,4.8225,4.8231,4.827,4.8281,4.8308,4.8319,4.8334,4.8347,4.8379,4.8397,4.8405,4.8419,4.8441,4.8461,4.8464,4.8471,4.8479,4.8481,4.8442,4.8437,4.8432,4.8426,4.8481,4.8481,4.852,4.852,4.8521]}]]